Location: Bergnershof
(48.9468°N, 10.9431°E)
Time: 22:42:51
(UTC+00:00)

Cosmos 1844 Rocket - Pass Details

Date: 20 June 2021
Orbit: 823 x 846 km, 71.0° (Epoch: 30 July)

Event Time Altitude Azimuth Distance (km) Brightness Sun altitude
Rises 21:09:30 0° 323° (NW) 3,414 7.9 -12.1°
Reaches altitude 10° 21:12:18 10° 311° (NW) 2,476 6.4 -12.4°
Maximum altitude 21:16:55 26° 257° (WSW) 1,602 4.3 -12.7°
Drops below altitude 10° 21:21:31 10° 202° (SSW) 2,463 4.7 -13.1°
Enters shadow 21:22:18 - 198° (SSW) 2,712 4.9 -13.1°
